Humidity-temperature Sensor

Selected Measurement Type: Relative Humidity

 
Relative Humidity [%]     6 entries per hour
Showing data from 6/24/2015 (00:00:00 Z) to 6/17/2015 (00:01:00 Z)
Previous Next [ Day | 3-Days | 7-Days ]
First Last
Prev [ Day | 3-Days | 7-Days ] Next
First Last

Start Time:     :
End Time:     :     
Time (in GMT) :00 :50 :40 :30 :20 :10
Previous Next [ Day | 3-Days | 7-Days ]
First Last
Prev [ Day | 3-Days | 7-Days ] Next
First Last


123 => good data
MM => data is determined as missing
-- => data not received/configured
Back to Top Back to Top
6/24/2015 00:00 to 23:10 84.05 83.63 83.55 83.19 83.34 84.55
6/23/2015 23:00 to 22:10 84.11 82.82 82.82 82.61 82.25 83.28
6/23/2015 22:00 to 21:10 81.60 81.98 82.75 84.01 82.88 83.05
6/23/2015 21:00 to 20:10 83.13 81.88 83.03 82.84 82.38 82.36
6/23/2015 20:00 to 19:10 81.94 81.77 81.23 82.21 82.65 83.61
6/23/2015 19:00 to 18:10 82.11 82.21 81.81 81.88 82.36 81.54
6/23/2015 18:00 to 17:10 82.38 81.65 81.31 82.04 82.46 81.40
6/23/2015 17:00 to 16:10 82.27 81.71 82.04 82.98 83.86 82.44
6/23/2015 16:00 to 15:10 82.34 82.38 83.44 83.15 82.06 81.56
6/23/2015 15:00 to 14:10 81.60 82.19 82.48 81.48 81.81 81.65
6/23/2015 14:00 to 13:10 81.65 81.46 81.67 81.75 82.73 83.17
6/23/2015 13:00 to 12:10 84.26 83.78 83.97 83.61 83.55 83.42
6/23/2015 12:00 to 11:10 85.49 84.09 85.45 84.53 84.30 84.24
6/23/2015 11:00 to 10:10 83.11 83.11 84.51 83.84 84.45 83.84
6/23/2015 10:00 to 9:10 83.53 83.59 84.01 84.01 83.47 83.40
6/23/2015 09:00 to 8:10 83.42 84.43 84.47 84.30 83.97 83.36
6/23/2015 08:00 to 7:10 82.94 84.24 85.18 85.41 84.24 84.53
6/23/2015 07:00 to 6:10 84.47 84.78 84.87 84.72 86.02 87.73
6/23/2015 06:00 to 5:10 84.95 84.78 83.19 83.55 84.18 84.03
6/23/2015 05:00 to 4:10 83.59 84.74 85.35 84.07 84.13 83.53
6/23/2015 04:00 to 3:10 83.93 84.66 85.08 84.49 84.05 84.62
6/23/2015 03:00 to 2:10 85.12 85.79 86.23 85.43 85.33 85.95
6/23/2015 02:00 to 1:10 86.04 86.18 85.79 85.28 85.56 85.60
6/23/2015 01:00 to 0:10 85.45 85.68 85.43 85.03 84.72 84.59
6/23/2015 00:00 to 23:10 84.85 84.47 83.70 85.81 85.49 85.93
6/22/2015 23:00 to 22:10 86.35 86.33 85.62 84.78 85.14 85.12
6/22/2015 22:00 to 21:10 84.26 83.61 85.28 85.89 86.46 85.64
6/22/2015 21:00 to 20:10 84.95 84.20 83.53 83.70 85.05 85.77
6/22/2015 20:00 to 19:10 85.56 85.12 84.99 85.28 85.26 86.23
6/22/2015 19:00 to 18:10 86.43 85.89 86.46 86.98 86.18 85.60
6/22/2015 18:00 to 17:10 85.43 87.08 86.35 86.10 86.35 85.97
6/22/2015 17:00 to 16:10 87.17 86.79 86.87 87.48 86.81 86.66
6/22/2015 16:00 to 15:10 86.27 85.45 86.16 86.54 85.97 85.62
6/22/2015 15:00 to 14:10 86.29 85.54 85.93 86.12 86.14 86.39
6/22/2015 14:00 to 13:10 86.48 86.87 87.27 88.00 86.92 87.48
6/22/2015 13:00 to 12:10 87.52 88.07 87.90 87.46 87.35 87.61
6/22/2015 12:00 to 11:10 87.44 87.86 87.65 88.48 88.42 88.46
6/22/2015 11:00 to 10:10 88.59 88.27 88.96 88.92 89.15 88.63
6/22/2015 10:00 to 9:10 88.30 88.19 88.59 88.67 88.78 88.84
6/22/2015 09:00 to 8:10 88.90 88.94 88.94 88.90 89.19 89.05
6/22/2015 08:00 to 7:10 89.01 88.94 89.07 89.13 89.11 88.94
6/22/2015 07:00 to 6:10 88.40 88.80 88.27 88.34 88.88 88.80
6/22/2015 06:00 to 5:10 88.69 89.30 89.01 88.48 88.65 88.59
6/22/2015 05:00 to 4:10 88.90 88.92 88.78 89.07 88.76 89.09
6/22/2015 04:00 to 3:10 88.92 88.71 88.44 88.73 88.96 88.92
6/22/2015 03:00 to 2:10 88.88 88.38 88.38 88.46 88.36 88.23
6/22/2015 02:00 to 1:10 88.15 87.92 87.77 87.58 87.56 87.27
6/22/2015 01:00 to 0:10 87.04 87.15 87.00 87.02 87.35 87.08
6/22/2015 00:00 to 23:10 86.92 87.15 87.06 86.75 86.75 86.96
6/21/2015 23:00 to 22:10 87.25 87.44 87.42 87.50 86.79 87.44
6/21/2015 22:00 to 21:10 87.58 87.12 86.58 86.48 87.73 87.50
6/21/2015 21:00 to 20:10 87.35 87.04 87.12 87.75 87.29 87.33
6/21/2015 20:00 to 19:10 87.90 87.46 87.44 86.85 87.69 87.98
6/21/2015 19:00 to 18:10 88.07 88.11 88.13 87.50 87.44 87.38
6/21/2015 18:00 to 17:10 87.65 87.86 87.77 87.19 87.52 87.35
6/21/2015 17:00 to 16:10 87.46 87.61 87.73 87.48 87.46 87.52
6/21/2015 16:00 to 15:10 86.89 86.89 86.25 86.43 86.18 86.12
6/21/2015 15:00 to 14:10 86.50 86.87 87.38 87.52 88.21 88.38
6/21/2015 14:00 to 13:10 88.42 88.53 88.92 88.96 88.99 88.82
6/21/2015 13:00 to 12:10 89.13 89.32 89.32 89.59 90.03 90.24
6/21/2015 12:00 to 11:10 89.97 89.97 89.95 90.11 90.20 89.86
6/21/2015 11:00 to 10:10 89.78 90.45 90.41 89.93 90.05 89.97
6/21/2015 10:00 to 9:10 89.80 89.93 90.01 89.74 89.26 88.80
6/21/2015 09:00 to 8:10 88.76 88.57 89.07 89.70 90.03 89.97
6/21/2015 08:00 to 7:10 89.91 89.88 89.76 89.57 89.38 89.11
6/21/2015 07:00 to 6:10 89.07 88.92 88.94 89.45 89.59 89.53
6/21/2015 06:00 to 5:10 89.84 89.15 88.61 89.68 90.41 90.74
6/21/2015 05:00 to 4:10 90.34 89.15 88.69 88.36 88.32 88.34
6/21/2015 04:00 to 3:10 87.92 87.73 88.00 87.38 86.81 86.60
6/21/2015 03:00 to 2:10 86.69 86.73 86.69 87.02 86.54 86.60
6/21/2015 02:00 to 1:10 86.64 86.75 87.38 87.86 87.73 87.92
6/21/2015 01:00 to 0:10 88.15 88.15 87.58 86.75 86.27 85.60
6/21/2015 00:00 to 23:10 85.01 85.05 85.43 85.35 85.03 85.58
6/20/2015 23:00 to 22:10 85.26 85.33 85.51 85.39 85.77 85.68
6/20/2015 22:00 to 21:10 85.37 85.45 85.60 85.97 86.00 85.43
6/20/2015 21:00 to 20:10 85.20 86.27 86.25 86.02 85.89 85.97
6/20/2015 20:00 to 19:10 85.89 85.77 86.41 86.08 85.85 85.43
6/20/2015 19:00 to 18:10 85.60 85.12 85.12 85.20 85.01 84.26
6/20/2015 18:00 to 17:10 83.90 85.03 85.22 85.16 84.95 85.10
6/20/2015 17:00 to 16:10 85.77 85.74 86.52 86.56 86.29 86.06
6/20/2015 16:00 to 15:10 86.08 85.26 84.99 85.08 84.99 84.99
6/20/2015 15:00 to 14:10 84.78 84.80 84.76 85.12 85.51 86.23
6/20/2015 14:00 to 13:10 85.85 85.91 85.97 86.37 86.33 86.83
6/20/2015 13:00 to 12:10 87.00 87.25 87.71 87.79 88.09 88.04
6/20/2015 12:00 to 11:10 87.90 87.92 87.98 87.69 87.63 87.63
6/20/2015 11:00 to 10:10 87.90 88.25 88.34 88.44 88.32 88.86
6/20/2015 10:00 to 9:10 89.38 89.70 89.59 89.61 89.80 89.57
6/20/2015 09:00 to 8:10 89.53 89.59 89.49 89.22 89.01 88.88
6/20/2015 08:00 to 7:10 88.76 88.78 88.92 89.09 89.26 89.34
6/20/2015 07:00 to 6:10 89.51 89.63 89.55 89.19 88.92 88.78
6/20/2015 06:00 to 5:10 88.84 88.67 88.53 88.15 88.19 88.27
6/20/2015 05:00 to 4:10 88.25 87.75 87.02 86.79 87.06 87.33
6/20/2015 04:00 to 3:10 87.38 87.40 87.52 87.46 87.38 87.71
6/20/2015 03:00 to 2:10 87.73 87.52 87.48 87.40 87.86 88.13
6/20/2015 02:00 to 1:10 88.61 89.32 89.13 89.03 88.88 88.65
6/20/2015 01:00 to 0:10 88.04 86.02 85.83 85.93 85.81 85.60
6/20/2015 00:00 to 23:10 85.43 85.22 84.87 84.89 85.35 85.64
6/19/2015 23:00 to 22:10 85.74 85.70 85.79 85.89 86.10 86.39
6/19/2015 22:00 to 21:10 86.35 86.64 86.04 85.26 85.20 85.10
6/19/2015 21:00 to 20:10 85.37 84.66 86.02 86.60 86.16 84.93
6/19/2015 20:00 to 19:10 84.13 84.95 85.68 85.74 86.60 86.92
6/19/2015 19:00 to 18:10 86.50 86.10 84.18 84.07 84.05 83.42
6/19/2015 18:00 to 17:10 83.49 83.61 84.09 83.80 84.43 84.59
6/19/2015 17:00 to 16:10 83.95 84.53 84.78 85.05 83.97 83.63
6/19/2015 16:00 to 15:10 83.24 83.19 83.36 83.44 84.39 84.34
6/19/2015 15:00 to 14:10 85.03 85.31 85.49 84.68 84.95 85.31
6/19/2015 14:00 to 13:10 85.39 85.39 85.51 85.68 85.56 85.79
6/19/2015 13:00 to 12:10 85.97 85.93 85.95 85.58 85.89 85.60
6/19/2015 12:00 to 11:10 85.62 85.89 86.52 87.38 89.88 91.22
6/19/2015 11:00 to 10:10 91.54 90.80 90.47 90.47 88.67 88.57
6/19/2015 10:00 to 9:10 88.69 88.50 87.94 86.75 84.45 84.01
6/19/2015 09:00 to 8:10 83.55 83.80 83.97 84.13 83.74 83.93
6/19/2015 08:00 to 7:10 83.49 83.17 82.75 82.94 82.94 82.17
6/19/2015 07:00 to 6:10 82.78 83.82 83.90 83.49 83.59 83.49
6/19/2015 06:00 to 5:10 82.71 82.90 82.61 83.26 83.28 83.51
6/19/2015 05:00 to 4:10 82.96 83.01 82.32 82.73 82.82 82.44
6/19/2015 04:00 to 3:10 83.17 83.30 83.47 83.03 82.88 83.55
6/19/2015 03:00 to 2:10 82.92 82.34 82.25 81.19 80.98 80.81
6/19/2015 02:00 to 1:10 80.85 81.37 81.37 80.41 80.12 80.91
6/19/2015 01:00 to 0:10 79.72 80.68 80.01 78.86 81.42 80.98
6/19/2015 00:00 to 23:10 80.62 81.19 79.28 77.61 79.12 79.03
6/18/2015 23:00 to 22:10 79.97 80.08 80.60 78.40 77.40 78.11
6/18/2015 22:00 to 21:10 77.80 77.21 78.86 78.70 77.65 77.00
6/18/2015 21:00 to 20:10 76.36 76.92 78.13 77.21 78.63 78.51
6/18/2015 20:00 to 19:10 79.51 79.93 79.43 78.93 80.83 80.75
6/18/2015 19:00 to 18:10 79.18 80.12 80.39 80.98 80.10 80.33
6/18/2015 18:00 to 17:10 80.20 78.36 79.70 79.83 81.98 84.16
6/18/2015 17:00 to 16:10 83.34 81.58 79.87 81.06 80.48 80.29
6/18/2015 16:00 to 15:10 80.54 80.22 80.29 80.10 80.25 81.46
6/18/2015 15:00 to 14:10 81.92 80.89 81.40 83.19 82.59 82.88
6/18/2015 14:00 to 13:10 82.46 82.32 81.73 82.52 82.78 82.75
6/18/2015 13:00 to 12:10 83.19 82.75 82.75 82.13 83.55 82.96
6/18/2015 12:00 to 11:10 83.80 82.88 82.94 84.80 84.36 83.55
6/18/2015 11:00 to 10:10 84.28 85.01 85.45 84.72 84.64 84.55
6/18/2015 10:00 to 9:10 84.47 84.74 84.97 83.32 84.41 84.41
6/18/2015 09:00 to 8:10 84.80 84.64 85.05 85.28 84.43 85.24
6/18/2015 08:00 to 7:10 86.16 85.49 85.70 86.12 85.14 85.74
6/18/2015 07:00 to 6:10 85.62 85.66 85.93 86.29 86.43 86.10
6/18/2015 06:00 to 5:10 87.08 87.02 86.31 86.69 86.16 85.74
6/18/2015 05:00 to 4:10 85.66 86.29 86.71 87.50 87.00 86.50
6/18/2015 04:00 to 3:10 85.41 86.12 86.27 86.39 85.74 86.04
6/18/2015 03:00 to 2:10 85.89 85.66 86.18 86.04 85.79 86.66
6/18/2015 02:00 to 1:10 86.77 86.77 86.43 86.25 85.47 85.24
6/18/2015 01:00 to 0:10 86.23 86.71 85.97 85.95 85.85 85.70
6/18/2015 00:00 to 23:10 85.77 85.54 86.23 86.71 86.04 85.68
6/17/2015 23:00 to 22:10 86.25 85.97 85.18 85.87 86.77 86.66
6/17/2015 22:00 to 21:10 86.83 85.91 85.91 85.54 85.93 86.06
6/17/2015 21:00 to 20:10 86.33 86.58 86.20 86.08 86.46 86.08
6/17/2015 20:00 to 19:10 86.94 86.89 87.86 87.58 87.15 86.52
6/17/2015 19:00 to 18:10 85.66 84.97 84.89 84.57 84.05 84.51
6/17/2015 18:00 to 17:10 86.20 86.50 85.37 84.89 84.18 83.17
6/17/2015 17:00 to 16:10 82.44 82.67 83.36 83.99 83.19 82.78
6/17/2015 16:00 to 15:10 83.53 84.13 84.68 84.97 85.51 87.48
6/17/2015 15:00 to 14:10 89.99 88.38 87.61 88.34 89.30 89.91
6/17/2015 14:00 to 13:10 90.18 89.03 87.79 88.19 88.42 85.97
6/17/2015 13:00 to 12:10 86.79 88.61 89.68 90.37 89.80 86.33
6/17/2015 12:00 to 11:10 85.16 84.43 85.95 88.17 87.48 87.08
6/17/2015 11:00 to 10:10 86.10 85.49 85.39 84.87 84.68 84.93
6/17/2015 10:00 to 9:10 84.82 85.95 85.91 85.43 84.72 86.00
6/17/2015 09:00 to 8:10 85.93 86.58 86.75 86.27 86.66 86.52
6/17/2015 08:00 to 7:10 86.48 86.04 85.95 86.75 86.06 86.25
6/17/2015 07:00 to 6:10 86.89 87.00 86.69 86.37 85.10 85.10
6/17/2015 06:00 to 5:10 84.78 85.62 84.97 85.64 86.00 86.27
6/17/2015 05:00 to 4:10 85.87 85.89 85.85 85.22 85.05 84.87
6/17/2015 04:00 to 3:10 84.89 84.99 84.89 84.93 84.34 83.90
6/17/2015 03:00 to 2:10 84.20 84.85 84.85 84.76 84.62 84.74
6/17/2015 02:00 to 1:10 84.51 84.20 84.20 84.43 84.59 85.26
6/17/2015 01:00 to 0:10 85.37 85.51 85.35 84.95 84.70 84.41